When you browse on this site, cookies collect data to enhance your experience and personalize the content and advertising you see.
Visit our Privacy Policy to learn more. By continuing to use the site, you agree to this use of cookies and data.
  • In Hungary
  • List of Countries
  • For 7 days
  • Water Temperature
  • Satellite Maps
  • Weather Map
  • News
  • Weather Widgets
  • user-avatar
    Login

    Hourly Weather Tinchlik

    Today, 17 December, Monday

    Time Temperature Precipitation Wind Pressure Humidity
    00:00 +4°C° 0 mm 3 mps 735 mmHg 63%
    01:00 +4°C° 0 mm 3 mps 735 mmHg 63%
    02:00 +4°C° 0 mm 3 mps 735 mmHg 62%
    03:00 +4°C° 0 mm 3 mps 735 mmHg 61%
    04:00 +4°C° 0 mm 3 mps 734 mmHg 59%
    05:00 +4°C° 0 mm 3 mps 734 mmHg 58%
    06:00 +4°C° 0 mm 3 mps 734 mmHg 57%
    07:00 +4°C° 0 mm 3 mps 734 mmHg 56%
    08:00 +7°C° 0 mm 3 mps 734 mmHg 52%
    09:00 +7°C° 0 mm 4 mps 734 mmHg 47%
    10:00 +9°C° 0 mm 5 mps 733 mmHg 42%
    11:00 +9°C° 0 mm 6 mps 733 mmHg 42%
    12:00 +10°C° 0 mm 6 mps 733 mmHg 42%
    13:00 +10°C° 0 mm 7 mps 733 mmHg 42%
    14:00 +10°C° 0 mm 6 mps 733 mmHg 46%
    15:00 +9°C° 0 mm 5 mps 733 mmHg 49%
    16:00 +10°C° 0 mm 4 mps 733 mmHg 52%
    17:00 +8°C° 0 mm 4 mps 733 mmHg 56%
    18:00 +7°C° 0 mm 4 mps 734 mmHg 59%
    19:00 +7°C° 0 mm 4 mps 734 mmHg 62%
    20:00 +6°C° 0 mm 4 mps 734 mmHg 65%
    21:00 +5°C° 0 mm 4 mps 735 mmHg 67%
    22:00 +4°C° 0 mm 4 mps 735 mmHg 69%
    23:00 +3°C° 0 mm 3 mps 735 mmHg 68%

    Tomorrow, 18 December, Tuesday

    Time Temperature Precipitation Wind Pressure Humidity
    00:00 +3°C° 0 mm 3 mps 735 mmHg 66%
    01:00 +3°C° 0 mm 2 mps 736 mmHg 64%
    02:00 +3°C° 0 mm 2 mps 736 mmHg 62%
    03:00 +2°C° 0 mm 2 mps 736 mmHg 61%
    04:00 +2°C° 0 mm 2 mps 736 mmHg 59%
    05:00 +2°C° 0 mm 2 mps 736 mmHg 58%
    06:00 +2°C° 0 mm 2 mps 736 mmHg 56%
    07:00 +2°C° 0 mm 2 mps 736 mmHg 55%
    08:00 +3°C° 0 mm 2 mps 735 mmHg 51%
    09:00 +4°C° 0 mm 3 mps 735 mmHg 47%
    10:00 +5°C° 0 mm 3 mps 735 mmHg 43%
    11:00 +7°C° 0 mm 3 mps 734 mmHg 42%
    12:00 +8°C° 0 mm 3 mps 734 mmHg 40%
    13:00 +9°C° 0 mm 2 mps 733 mmHg 39%
    14:00 +9°C° 0 mm 3 mps 733 mmHg 40%
    15:00 +8°C° 0 mm 3 mps 733 mmHg 42%
    16:00 +8°C° 0 mm 3 mps 732 mmHg 44%
    17:00 +8°C° 0.1 mm 3 mps 732 mmHg 47%
    18:00 +6°C° 0.1 mm 4 mps 732 mmHg 50%
    19:00 +6°C° 0.1 mm 4 mps 732 mmHg 53%
    20:00 +6°C° 0.1 mm 4 mps 732 mmHg 56%
    21:00 +6°C° 0.1 mm 4 mps 732 mmHg 59%
    22:00 +5°C° 0.1 mm 4 mps 731 mmHg 62%
    23:00 +5°C° 0.1 mm 4 mps 731 mmHg 64%

    Day after tomorrow, 19 December, Wednesday

    Time Temperature Precipitation Wind Pressure Humidity
    00:00 +5°C° 0.1 mm 4 mps 731 mmHg 66%
    01:00 +4°C° 0.1 mm 4 mps 731 mmHg 68%
    02:00 +4°C° 0.2 mm 4 mps 731 mmHg 70%
    03:00 +4°C° 0.2 mm 4 mps 731 mmHg 72%
    04:00 +4°C° 0.2 mm 4 mps 732 mmHg 74%
    05:00 +3°C° 0.3 mm 4 mps 732 mmHg 76%
    06:00 +3°C° 0.3 mm 4 mps 732 mmHg 78%
    07:00 +3°C° 0.3 mm 4 mps 733 mmHg 80%
    08:00 +3°C° 0.3 mm 4 mps 733 mmHg 80%
    09:00 +3°C° 0.3 mm 4 mps 734 mmHg 80%
    10:00 +1°C° 0.3 mm 4 mps 734 mmHg 80%
    11:00 +1°C° 0.3 mm 4 mps 735 mmHg 80%
    12:00 +1°C° 0.3 mm 4 mps 735 mmHg 79%
    13:00 +1°C° 0.3 mm 4 mps 735 mmHg 79%
    14:00 +1°C° 0.2 mm 4 mps 735 mmHg 79%
    15:00 +1°C° 0.2 mm 4 mps 736 mmHg 78%
    16:00 +1°C° 0.2 mm 3 mps 736 mmHg 78%
    17:00 +1°C° 0 mm 3 mps 737 mmHg 78%
    18:00 +1°C° 0 mm 3 mps 737 mmHg 78%
    19:00 +2°C° 0 mm 2 mps 738 mmHg 78%
    20:00 +1°C° 0 mm 2 mps 738 mmHg 78%
    21:00 +1°C° 0 mm 2 mps 738 mmHg 79%
    22:00 +1°C° 0 mm 2 mps 738 mmHg 79%
    23:00 -1°C° 0 mm 2 mps 739 mmHg 79%

    20 December, Thursday

    Time Temperature Precipitation Wind Pressure Humidity
    00:00 -1°C° 0 mm 2 mps 739 mmHg 79%
    01:00 +1°C° 0 mm 1 mps 739 mmHg 79%
    02:00 +1°C° 0 mm 1 mps 739 mmHg 79%
    03:00 +1°C° 0 mm 1 mps 739 mmHg 78%
    04:00 +1°C° 0 mm 1 mps 739 mmHg 77%
    05:00 +1°C° 0 mm 1 mps 739 mmHg 77%
    06:00 +1°C° 0 mm 1 mps 740 mmHg 77%
    07:00 0°C° 0 mm 1 mps 740 mmHg 78%
    08:00 +1°C° 0 mm 2 mps 740 mmHg 72%
    09:00 +2°C° 0 mm 2 mps 740 mmHg 66%
    10:00 +3°C° 0 mm 2 mps 740 mmHg 61%
    11:00 +4°C° 0 mm 2 mps 740 mmHg 58%
    12:00 +4°C° 0 mm 2 mps 739 mmHg 55%
    13:00 +5°C° 0 mm 2 mps 739 mmHg 53%
    14:00 +5°C° 0 mm 2 mps 738 mmHg 56%
    15:00 +4°C° 0 mm 2 mps 738 mmHg 60%
    16:00 +4°C° 0 mm 2 mps 738 mmHg 63%
    17:00 +3°C° 0 mm 3 mps 738 mmHg 67%
    18:00 +2°C° 0 mm 3 mps 738 mmHg 70%
    19:00 +2°C° 0 mm 3 mps 738 mmHg 74%
    20:00 +2°C° 0 mm 3 mps 737 mmHg 75%
    21:00 +2°C° 0 mm 3 mps 737 mmHg 77%
    22:00 +1°C° 0 mm 3 mps 737 mmHg 78%
    23:00 +1°C° 0 mm 3 mps 736 mmHg 78%

    21 December, Friday

    Time Temperature Precipitation Wind Pressure Humidity
    00:00 0°C° 0 mm 4 mps 735 mmHg 78%
    01:00 0°C° 0 mm 4 mps 735 mmHg 78%
    02:00 0°C° 0 mm 4 mps 735 mmHg 78%
    03:00 0°C° 0 mm 4 mps 734 mmHg 78%
    04:00 0°C° 0 mm 4 mps 734 mmHg 77%
    05:00 +1°C° 0 mm 4 mps 733 mmHg 75%
    06:00 +2°C° 0 mm 3 mps 733 mmHg 74%
    07:00 +2°C° 0 mm 3 mps 733 mmHg 72%
    08:00 +3°C° 0 mm 3 mps 733 mmHg 67%
    09:00 +4°C° 0 mm 3 mps 733 mmHg 62%
    10:00 +7°C° 0 mm 3 mps 732 mmHg 58%
    11:00 +7°C° 0 mm 3 mps 732 mmHg 56%
    12:00 +8°C° 0 mm 3 mps 731 mmHg 54%
    13:00 +9°C° 0 mm 3 mps 731 mmHg 52%
    14:00 +8°C° 0 mm 3 mps 730 mmHg 55%
    15:00 +8°C° 0 mm 3 mps 730 mmHg 58%
    16:00 +7°C° 0 mm 3 mps 730 mmHg 60%
    17:00 +7°C° 0 mm 2 mps 730 mmHg 61%
    18:00 +7°C° 0 mm 2 mps 730 mmHg 62%
    19:00 +6°C° 0 mm 2 mps 730 mmHg 63%
    20:00 +6°C° 0 mm 2 mps 730 mmHg 63%
    21:00 +6°C° 0 mm 2 mps 730 mmHg 63%
    22:00 +6°C° 0 mm 2 mps 730 mmHg 63%
    23:00 +6°C° 0 mm 2 mps 730 mmHg 64%

    22 December, Saturday

    Time Temperature Precipitation Wind Pressure Humidity
    00:00 +5°C° 0 mm 2 mps 730 mmHg 66%
    01:00 +5°C° 0 mm 2 mps 730 mmHg 67%
    02:00 +4°C° 0 mm 2 mps 730 mmHg 68%
    03:00 +4°C° 0 mm 2 mps 730 mmHg 69%
    04:00 +4°C° 0 mm 2 mps 730 mmHg 70%
    05:00 +4°C° 0 mm 2 mps 730 mmHg 71%
    06:00 +5°C° 0 mm 1 mps 730 mmHg 71%
    07:00 +4°C° 0 mm 1 mps 731 mmHg 72%
    08:00 +5°C° 0 mm 1 mps 731 mmHg 68%
    09:00 +6°C° 0 mm 1 mps 731 mmHg 63%
    10:00 +6°C° 0 mm 2 mps 731 mmHg 59%
    11:00 +6°C° 0 mm 2 mps 731 mmHg 56%
    12:00 +7°C° 0 mm 2 mps 731 mmHg 53%
    13:00 +7°C° 0 mm 3 mps 731 mmHg 50%
    14:00 +7°C° 0 mm 3 mps 731 mmHg 51%
    15:00 +6°C° 0 mm 2 mps 731 mmHg 52%
    16:00 +6°C° 0 mm 2 mps 731 mmHg 53%
    17:00 +5°C° 0 mm 2 mps 732 mmHg 55%
    18:00 +5°C° 0 mm 2 mps 732 mmHg 57%
    19:00 +4°C° 0 mm 2 mps 732 mmHg 59%
    20:00 +4°C° 0 mm 2 mps 732 mmHg 60%
    21:00 +4°C° 0 mm 2 mps 733 mmHg 61%
    22:00 +3°C° 0 mm 2 mps 733 mmHg 62%
    23:00 +3°C° 0 mm 2 mps 733 mmHg 63%
    Show more